Location: Newark
(34.1333°N, 7.9667°W)
Time: 20:34:18
(UTC+00:00)

Vanguard 3 - All Passes

Search period start: 13 June 2021 00:00
Search period end: 23 June 2021 00:00
Orbit: 508 x 3262 km, 33.3° (Epoch: 12 June)

Date Brightness Start Highest point End Pass type
(mag) Time Alt. Az. Time Alt. Az. Time Alt. Az.
13 Jun - 07:52:23 10° SSW 07:55:15 19° SE 07:58:48 10° E daylight
13 Jun - 10:01:22 10° WSW 10:06:06 72° SSE 10:14:10 10° E daylight
13 Jun - 12:11:54 10° W 12:18:32 83° S 12:30:52 10° ESE daylight
13 Jun - 14:23:05 10° W 14:32:10 56° SSW 14:47:49 10° SE daylight
13 Jun - 16:36:30 10° W 16:46:55 28° SSW 17:01:05 10° SSE daylight
14 Jun - 08:48:26 10° SW 08:52:20 46° SSE 08:58:07 10° E daylight
14 Jun - 10:58:38 10° W 11:04:00 85° S 11:13:38 10° E daylight
14 Jun - 13:09:23 10° W 13:16:53 68° SSW 13:30:37 10° ESE daylight
14 Jun - 15:21:19 10° W 15:30:57 38° SSW 15:45:52 10° SSE daylight
14 Jun - 17:38:53 10° WSW 17:45:57 15° SW 17:54:09 10° S daylight
15 Jun - 07:35:57 10° SSW 07:38:56 22° SSE 07:42:31 10° E daylight
15 Jun - 09:45:28 10° WSW 09:49:53 76° S 09:57:08 10° E daylight
15 Jun - 11:55:59 10° W 12:02:06 78° S 12:13:18 10° ESE daylight
15 Jun - 14:07:07 10° W 14:15:23 48° SSW 14:29:35 10° SE daylight
15 Jun - 16:20:57 10° WSW 16:29:52 23° SSW 16:41:51 10° S daylight
16 Jun - 08:32:24 10° WSW 08:36:09 51° SSE 08:41:26 10° E daylight
16 Jun - 10:42:46 10° W 10:47:43 85° S 10:56:24 10° E daylight
16 Jun - 12:53:27 10° W 13:00:19 60° SSW 13:12:44 10° ESE daylight
16 Jun - 15:05:32 10° W 15:14:05 31° SSW 15:27:08 10° SSE daylight
16 Jun - 17:26:59 10° SW 17:28:59 10° SW 17:31:04 10° SSW daylight
17 Jun - 07:19:34 10° SSW 07:22:41 26° SSE 07:26:17 10° E daylight
17 Jun - 09:29:34 10° W 09:33:43 80° S 09:40:13 10° E daylight
17 Jun - 11:40:07 10° W 11:45:42 72° SSW 11:55:50 10° ESE daylight
17 Jun - 13:51:15 10° W 13:58:43 41° SSW 14:11:17 10° SE daylight
17 Jun - 16:05:52 10° WSW 16:12:59 18° SSW 16:22:10 10° S daylight
18 Jun - 06:07:38 10° S 06:09:14 12° SSE 06:10:49 10° SE daylight
18 Jun - 08:16:22 10° WSW 08:20:01 57° SSE 08:24:51 10° E daylight
18 Jun - 10:26:54 10° W 10:31:31 82° S 10:39:17 10° E daylight
18 Jun - 12:37:35 10° W 12:43:50 52° SSW 12:54:53 10° SE daylight
18 Jun - 14:49:58 10° WSW 14:57:22 25° SSW 15:08:13 10° SSE daylight
19 Jun - 07:03:12 10° SW 07:06:32 32° SSE 07:10:06 10° E daylight
19 Jun - 09:13:40 10° W 09:17:36 82° S 09:23:26 10° E daylight
19 Jun - 11:24:15 10° W 11:29:25 65° SSW 11:38:25 10° ESE daylight
19 Jun - 13:35:31 10° W 13:42:10 33° SSW 13:52:56 10° SE daylight
19 Jun - 15:51:49 10° SW 15:56:16 13° SSW 16:01:29 10° S daylight
20 Jun - 05:50:22 10° SSW 05:53:00 17° SSE 05:55:28 10° ESE daylight
20 Jun - 08:00:19 10° WSW 08:03:56 64° SSE 08:08:23 10° E daylight
20 Jun - 10:11:03 10° W 10:15:21 77° S 10:22:17 10° ESE daylight
20 Jun - 12:21:47 10° W 12:27:26 43° SSW 12:37:03 10° SE daylight
20 Jun - 14:34:46 10° WSW 14:40:47 19° SSW 14:49:01 10° SSE daylight
21 Jun - 06:46:50 10° SW 06:50:25 39° SSE 06:53:59 10° E daylight
21 Jun - 08:57:45 10° W 09:01:32 83° S 09:06:47 10° E daylight
21 Jun - 11:08:25 10° W 11:13:09 55° SSW 11:21:05 10° ESE daylight
21 Jun - 13:19:58 10° WSW 13:25:44 26° SSW 13:34:29 10° SSE daylight
22 Jun - 05:33:22 10° SSW 05:36:51 23° SSE 05:39:50 10° ESE daylight
22 Jun - 07:44:14 10° WSW 07:47:54 71° S 07:52:01 10° E daylight
22 Jun - 09:55:10 10° W 09:59:13 70° S 10:05:23 10° ESE daylight
22 Jun - 12:06:05 10° W 12:11:08 34° SSW 12:19:15 10° SE daylight
22 Jun - 14:20:19 10° SW 14:24:18 13° SSW 14:29:12 10° S daylight
